Change the Weather History Date:

Wednesday, August 8, 2012

  Actual Average Record
Temperature  
Mean Temperature 56 °F 58 °F  
Max Temperature 63 °F 68 °F 85 °F (1966)
Min Temperature 48 °F 49 °F 33 °F (1959)
Degree Days  
Heating Degree Days 9 7  
Month to date heating degree days 70 49  
Since 1 June heating degree days 320 317  
Since 1 July heating degree days 205 157  
Cooling Degree Days 0 0  
Month to date cooling degree days 0 0  
Year to date cooling degree days 34 55  
Since 1 June cooling degree days 34 54  
Growing Degree Days 6 (Base 50)    
Moisture  
Dew Point 48 °F    
Average Humidity 78    
Maximum Humidity 97    
Minimum Humidity 43    
Precipitation  
Precipitation 0.03 in 0.07 in 0.67 in (1918)
Month to date precipitation 0.13 0.55  
Year to date precipitation 5.89 6.24  
Snow  
Snow 0.00 in 0.00 in 0.00 in (2002)
Month to date snowfall 0.0 0.0  
Since 1 June snowfall 0.0 0.0  
Since 1 July snowfall 0.0 0.0  
Snow Depth 0.00 in    
Sea Level Pressure  
Sea Level Pressure 29.96 in    
Wind  
Wind Speed 2 mph (North)    
Max Wind Speed 5 mph    
Max Gust Speed -    
Visibility 8 miles    
Events Fog , Rain    
T = Trace of Precipitation, MM = Missing Value Source: NWS Daily Summary

Daily Weather History Graph

Daily Weather History Graph

Search for Another Location

Airport or City:

Trip Planner

Search our weather history database for the weather conditions in past years. The results will help you decide how hot, cold, wet, or windy it might be!

Date:

Astronomy

Aug. 08, 2012 Rise Set
Actual Time 5:17 AM AKDT 10:34 PM AKDT
Civil Twilight 3:58 AM AKDT 11:50 PM AKDT
Nautical Twilight Sun does not rise Sun does not rise
Astronomical Twilight Sun does not rise Sun does not rise
Moon 10:33 PM AKDT (8/8) 3:29 PM AKDT (8/8)
Length of Visible Light 19h 52m
Length of Day
17h 16m
Waning Gibbous, 59% of the Moon is Illuminated
Aug 8
Waning Gibbous
Aug 9
Last Quarter
Aug 17
New
Aug 24
First Quarter
Aug 31
Full

Hourly Weather History & Observations

Time (AKDT) Temp. Dew Point Humidity Pressure Visibility Wind Dir Wind Speed Gust Speed Precip Events Conditions
12:53 AM 50.0 °F 48.0 °F 93% 29.95 in 10.0 mi Calm Calm - 0.00 in Rain Light Rain
1:53 AM 50.0 °F 46.9 °F 89% 29.96 in 10.0 mi Calm Calm - 0.00 in   Overcast
2:53 AM 50.0 °F 46.9 °F 89% 29.96 in 10.0 mi NNE 3.5 mph - N/A   Overcast
3:53 AM 48.9 °F 46.9 °F 93% 29.96 in 10.0 mi North 3.5 mph - N/A Fog Overcast
4:53 AM 48.9 °F 46.9 °F 93% 29.96 in 10.0 mi NNE 4.6 mph - N/A Fog Overcast
5:30 AM 48.2 °F 46.4 °F 93% 29.95 in 2.0 mi Calm Calm - N/A   Overcast
5:53 AM 48.9 °F 48.0 °F 97% 29.96 in 1.5 mi North 3.5 mph - 0.01 in Rain Light Rain
6:53 AM 48.0 °F 46.9 °F 96% 29.97 in 1.5 mi North 4.6 mph - 0.00 in Rain Light Rain
7:53 AM 48.9 °F 48.0 °F 97% 29.98 in 1.5 mi North 3.5 mph - 0.01 in   Light Drizzle
8:53 AM 50.0 °F 48.9 °F 96% 29.98 in 1.5 mi North 3.5 mph - 0.01 in   Overcast
9:53 AM 51.1 °F 48.9 °F 92% 29.98 in 1.5 mi Calm Calm - N/A   Overcast
10:45 AM 51.8 °F 48.2 °F 88% 29.96 in 5.0 mi NNW 4.6 mph - N/A   Overcast
10:53 AM 52.0 °F 48.9 °F 89% 29.98 in 5.0 mi North 4.6 mph - N/A   Overcast
11:43 AM 53.6 °F 48.2 °F 82% 29.96 in 6.0 mi Variable 3.5 mph - N/A   Mostly Cloudy
11:53 AM 55.0 °F 48.0 °F 77% 29.97 in 7.0 mi Calm Calm - N/A   Mostly Cloudy
12:53 PM 55.0 °F 48.0 °F 77% 29.97 in 10.0 mi Calm Calm - N/A   Mostly Cloudy
1:53 PM 59.0 °F 48.9 °F 69% 29.96 in 10.0 mi North 3.5 mph - N/A   Mostly Cloudy
2:53 PM 59.0 °F 48.0 °F 67% 29.96 in 10.0 mi NNW 3.5 mph - N/A   Mostly Cloudy
3:53 PM 63.0 °F 46.0 °F 54% 29.95 in 10.0 mi Variable 3.5 mph - N/A   Mostly Cloudy
4:53 PM 63.0 °F 45.0 °F 52% 29.94 in 10.0 mi Calm Calm - N/A   Mostly Cloudy
5:53 PM 64.0 °F 45.0 °F 50% 29.93 in 10.0 mi Calm Calm - N/A   Mostly Cloudy
6:53 PM 61.0 °F 46.9 °F 60% 29.93 in 10.0 mi WSW 3.5 mph - N/A   Mostly Cloudy
7:53 PM 61.0 °F 48.9 °F 64% 29.93 in 10.0 mi Calm Calm - N/A   Mostly Cloudy
8:53 PM 61.0 °F 48.9 °F 64% 29.93 in 10.0 mi Calm Calm - N/A   Mostly Cloudy
9:53 PM 60.1 °F 46.9 °F 62% 29.94 in 10.0 mi Calm Calm - N/A   Mostly Cloudy
10:53 PM 55.0 °F 51.1 °F 86% 29.95 in 10.0 mi Calm Calm - N/A   Mostly Cloudy
11:53 PM 52.0 °F 48.9 °F 89% 29.95 in 10.0 mi Calm Calm - N/A   Mostly Cloudy